Home > Weather > Corfu > Past weeks

Flag for Greece Weather for the Past 2 Weeks in Corfu, Greece

Now
55 °F

Passing clouds.


Feels Like: 55 °F
Forecast: 51 / 57 °F
Wind: 3 mph from Southwest

Location: Kerkyra Airport

Current Time: Feb 8, 2016 at 7:49:24 PM

Latest Report: Feb 8, 2016 at 6:50 PM


Visibility: N/A

Pressure: 30.24 "Hg

Humidity: 77%

Dew point: 48 °F

Location of CorfuLocation

Historic Weather in Corfu — Graph

°F

Corfu Temperature Yesterday

Maximum temperature yesterday: 57 °F (at 11:50 AM)
Minimum temperature yesterday: 36 °F (at 7:20 AM)
Average temperature yesterday: 47 °F

High & Low Weather Summary for the Past Weeks

 TemperatureHumidityPressure
High66 °F (Feb 2, 12:50 PM)100% (Jan 27, 1:50 AM)30.45 "Hg (Jan 27, 1:50 AM)
Low34 °F (Jan 25, 5:50 AM)32% (Feb 5, 9:50 PM)29.86 "Hg (Feb 5, 4:20 AM)
Average52 °F78%30.28 "Hg
* Reported Jan 24 6:20 PM — Feb 8 6:20 PM, Corfu, Weather by CustomWeather, © 2016

Note: Actual official high and low records may vary slightly from our data, if they occured in-between our weather recording intervals... More about our weather records

Advertising

Corfu Weather History for the Previous 24 Hours

 ConditionsComfort  
Time TempWeatherWind HumidityBarometerVisibility
6:20 PM
Mon, Feb 8
57 °FPassing clouds.6 mph67%30.21 "HgN/A
5:50 PM57 °FScattered clouds.7 mph67%30.21 "HgN/A
5:20 PM57 °FScattered clouds.6 mph67%30.21 "HgN/A
4:50 PM57 °FScattered clouds.9 mph67%30.21 "HgN/A
4:20 PM61 °FScattered clouds.10 mph55%30.21 "HgN/A
3:50 PM61 °FScattered clouds.12 mph55%30.21 "HgN/A
3:20 PM59 °FScattered clouds.10 mph59%30.21 "HgN/A
2:50 PM59 °FScattered clouds.12 mph59%30.21 "HgN/A
2:20 PM57 °FScattered clouds.10 mph59%30.24 "HgN/A
1:50 PM57 °FScattered clouds.9 mph59%30.24 "HgN/A
1:20 PM59 °FPassing clouds.9 mph55%30.24 "HgN/A
12:50 PM59 °FPassing clouds.9 mph55%30.24 "HgN/A
12:20 PM57 °FPassing clouds.8 mph59%30.27 "HgN/A
11:50 AM57 °FPassing clouds.8 mph59%30.27 "HgN/A
11:20 AM57 °FPassing clouds.9 mph63%30.24 "HgN/A
10:50 AM57 °FPassing clouds.7 mph63%30.24 "HgN/A
10:20 AM55 °FScattered clouds.7 mph63%30.24 "HgN/A
9:50 AM55 °FScattered clouds.7 mph63%30.24 "HgN/A
9:20 AM54 °FScattered clouds.8 mph67%30.24 "HgN/A
8:50 AM54 °FScattered clouds.7 mph67%30.24 "HgN/A
8:20 AM55 °FScattered clouds.12 mph63%30.21 "HgN/A
7:50 AM54 °FScattered clouds.9 mph67%30.21 "HgN/A
7:20 AM54 °FPassing clouds.12 mph67%30.21 "HgN/A
6:50 AM54 °FPassing clouds.13 mph67%30.21 "HgN/A
6:20 AM54 °FPassing clouds.14 mph77%30.21 "HgN/A
5:50 AM54 °FPassing clouds.14 mph77%30.21 "HgN/A
5:20 AM54 °FPassing clouds.10 mph77%30.21 "HgN/A
4:50 AM54 °FPassing clouds.9 mph77%30.21 "HgN/A
4:20 AM54 °FPassing clouds.9 mph77%30.21 "HgN/A
3:50 AM54 °FPassing clouds.9 mph77%30.21 "HgN/A
2:50 AM54 °FPassing clouds.9 mph72%30.24 "HgN/A
2:20 AM54 °FPassing clouds.9 mph72%30.24 "HgN/A
1:50 AM54 °FPassing clouds.6 mph72%30.24 "HgN/A
12:50 AM54 °FPassing clouds.7 mph72%30.24 "HgN/A
12:20 AM52 °FPassing clouds.6 mph72%30.24 "HgN/A
11:50 PM
Sun, Feb 7
50 °FPassing clouds.2 mph76%30.27 "HgN/A
11:20 PM48 °FPassing clouds.No wind82%30.27 "HgN/A
10:50 PM48 °FPassing clouds.No wind82%30.27 "HgN/A
10:20 PM48 °FPassing clouds.No wind87%30.27 "HgN/A
9:50 PM48 °FPassing clouds.No wind87%30.27 "HgN/A
9:20 PM50 °FPassing clouds.2 mph82%30.27 "HgN/A
8:50 PM50 °FPassing clouds.No wind82%30.27 "HgN/A
8:20 PM50 °FPassing clouds.No wind88%30.27 "HgN/A
7:50 PM50 °FPassing clouds.5 mph88%30.27 "HgN/A
7:20 PM50 °FPassing clouds.8 mph88%30.27 "HgN/A
Weather by CustomWeather, © 2016

See weather overviewHow to use our weather pages